User: anonymous   Login
Location: Gungolding
(48.9246°N, 11.3502°E)
Time: 12:27:59
(UTC+02:00)
Language:

Vanguard 2 Rocket - Orbit

View from above orbital plane
View from above orbital plane
View from above satellite
View from above satellite

Ground track
Ground track

The orbit data is extracted from the following two-line orbital elements,

1    12U 59001B   20089.79841869 -.00000095 +00000-0 -54090-4 0  9997
2    12 032.8988 269.6243 1666348 017.1341 347.9225 11.44296832270850
Epoch (UTC): 29 March 2020 19:09:43
Eccentricity: 0.1666348
inclination: 32.8988°
perigee height: 554 km
apogee height: 3326 km
right ascension of ascending node: 269.6243°
argument of perigee: 17.1341°
revolutions per day: 11.44296832
mean anomaly at epoch: 347.9225°
orbit number at epoch: 27085

The dashed part of the orbit path shows where the satellite is in the earth's shadow,  

DLR